NW Arkansas Airport, AR

12:50 PM CDT on March 23, 2017 (GMT -0500)
Northwest Arkansas Regional

Weather History for KXNA - December, 2013

Change the Weather History Date:

Tuesday, December 31, 2013

  Actual Average (KVBT) Record (KVBT)
Temperature  
Mean Temperature 36 °F -  
Max Temperature 52 °F 40 °F 78 °F (1951)
Min Temperature 19 °F 22 °F -5 °F (1983)
Degree Days  
Heating Degree Days 30    
Moisture  
Dew Point 21 °F    
Average Humidity 63    
Maximum Humidity 92    
Minimum Humidity 29    
Precipitation  
Precipitation 0.00 in - - ()
Sea Level Pressure  
Sea Level Pressure 30.30 in    
Wind  
Wind Speed 5 mph (South)    
Max Wind Speed 18 mph    
Max Gust Speed 23 mph    
Visibility 10 miles    
Events      
Averages and records for this station are not official NWS values.
T = Trace of Precipitation, MM = Missing Value Source: NWS Daily Summary

Daily Weather History Graph

Daily Weather History Graph

Search for Another Location

Airport or City:

Trip Planner

Search our weather history database for the weather conditions in past years. The results will help you decide how hot, cold, wet, or windy it might be!

Date:

Astronomy

Dec. 31, 2013 Rise Set
Actual Time 7:28 AM CST 5:12 PM CST
Civil Twilight 6:59 AM CST 5:41 PM CST
Nautical Twilight 6:27 AM CST 6:13 PM CST
Astronomical Twilight 5:56 AM CST 6:44 PM CST
Moon 6:23 AM CST (12/31) 4:48 PM CST (12/31)
Length of Visible Light 10h 41m
Length of Day
9h 44m
Waning Crescent, 1% of the Moon is Illuminated
Dec 31
Waning Crescent
Jan 1
New
Jan 7
First Quarter
Jan 15
Full
Jan 23
Last Quarter

Hourly Weather History & Observations

Time (CST) Temp. Windchill Dew Point Humidity Pressure Visibility Wind Dir Wind Speed Gust Speed Precip Events Conditions
12:53 AM 21.9 °F 15.7 °F 19.0 °F 89% 30.39 in 10.0 mi WSW 4.6 mph - N/A   Clear
1:53 AM 21.9 °F - 18.0 °F 85% 30.38 in 10.0 mi Calm Calm - N/A   Clear
2:53 AM 19.9 °F 14.9 °F 18.0 °F 92% 30.39 in 9.0 mi SSW 3.5 mph - N/A   Clear
3:53 AM 19.0 °F - 16.0 °F 88% 30.38 in 7.0 mi Calm Calm - N/A   Clear
4:53 AM 19.9 °F - 17.1 °F 89% 30.38 in 9.0 mi Calm Calm - N/A   Clear
5:53 AM 19.9 °F 14.9 °F 17.1 °F 89% 30.39 in 9.0 mi South 3.5 mph - N/A   Clear
6:53 AM 19.9 °F - 16.0 °F 85% 30.39 in 10.0 mi Calm Calm - N/A   Clear
7:53 AM 21.0 °F - 17.1 °F 85% 30.39 in 10.0 mi Calm Calm - N/A   Clear
8:53 AM 26.1 °F - 21.0 °F 81% 30.40 in 10.0 mi Calm Calm - N/A   Clear
9:53 AM 32.0 °F 27.5 °F 24.1 °F 73% 30.40 in 10.0 mi SE 4.6 mph - N/A   Clear
10:53 AM 42.1 °F 37.7 °F 27.0 °F 55% 30.37 in 10.0 mi South 6.9 mph - N/A   Clear
11:53 AM 48.0 °F - 26.1 °F 42% 30.33 in 10.0 mi South 6.9 mph - N/A   Clear
12:53 PM 52.0 °F - 27.0 °F 38% 30.29 in 10.0 mi SSW 11.5 mph - N/A   Clear
1:53 PM 52.0 °F - 21.9 °F 31% 30.26 in 10.0 mi SSW 18.4 mph 23.0 mph N/A   Clear
2:53 PM 51.1 °F - 21.0 °F 31% 30.25 in 10.0 mi South 18.4 mph 23.0 mph N/A   Clear
3:53 PM 50.0 °F - 19.0 °F 29% 30.24 in 10.0 mi SSW 17.3 mph 23.0 mph N/A   Clear
4:53 PM 46.9 °F - 19.0 °F 33% 30.23 in 10.0 mi South 12.7 mph 19.6 mph N/A   Clear
5:53 PM 42.1 °F 37.1 °F 21.9 °F 45% 30.24 in 10.0 mi South 8.1 mph - N/A   Clear
6:53 PM 37.9 °F 31.5 °F 23.0 °F 55% 30.23 in 10.0 mi South 9.2 mph - N/A   Clear
7:53 PM 35.1 °F 29.3 °F 24.1 °F 64% 30.23 in 10.0 mi South 6.9 mph - N/A   Clear
8:53 PM 37.0 °F 30.4 °F 23.0 °F 57% 30.21 in 10.0 mi South 9.2 mph - N/A   Clear
9:53 PM 37.0 °F 30.4 °F 21.9 °F 54% 30.19 in 10.0 mi South 9.2 mph - N/A   Clear
10:53 PM 35.1 °F 28.6 °F 21.0 °F 57% 30.19 in 10.0 mi South 8.1 mph - N/A   Clear
11:53 PM 34.0 °F 27.2 °F 21.0 °F 59% 30.16 in 10.0 mi South 8.1 mph - N/A   Clear